Location: Unspecified
(0.0000°N, 0.0000°E)
Time: 13:50:09
(UTC+00:00)

deb Briz - Pass Details

Date: 21 February 2026
Orbit: 1676 x 2329 km, 64.7° (Epoch: 4 March)

Event Time Altitude Azimuth Distance (km) Brightness Sun altitude
Rises 19:04:22 0° 221° (SW) 5,654 ? -12.5°
Reaches altitude 10° 19:08:06 10° 228° (SW) 4,723 ? -13.4°
Maximum altitude 19:19:24 39° 292° (WNW) 3,126 ? -16.2°
Drops below altitude 10° 19:31:16 10° 356° (N) 4,907 ? -19.1°
Sets 19:35:20 0° 4° (N) 5,891 ? -20.1°
